[[{"header":{"parameterUnit":"m.s-1","parameterCategory":1,"la1":30.2992,"la2":30.254,"lo1":-89.0895,"lo2":-89.0443,"dy":0.0025,"dx":0.0025,"nx":19,"ny":19,"refTime":"2026-03-13T21:00:00:Z","depth":0,"parameterNumber":2,"parameterNumberName":"U-component_of_WINDS"},"data":[0,0,0,-1.7284,-1.7285,-1.733,-1.7331,-1.7395,-1.7395,0,0,0,0,0,0,0,0,0,0,0,-1.7272,-1.7272,-1.7284,-1.7285,-1.733,-1.7331,-1.7394,-1.7395,0,0,0,0,0,0,0,0,0,0,0,-1.7272,-1.7272,-1.7273,-1.7285,-1.733,-1.7331,-1.7394,-1.7358,0,0,0,0,0,0,0,0,0,0,-1.7313,-1.7303,-1.7272,-1.7273,-1.7285,-1.733,-1.7331,-1.7356,-1.7361,-1.7376,0,-1.7388,0,-1.7393,-1.74,-1.74,0,0,0,-1.7284,-1.73,-1.7311,-1.7273,-1.7286,-1.733,-1.731,-1.7359,-1.7363,-1.7381,-1.7389,-1.7392,-1.7394,-1.74,-1.74,-1.7489,-1.749,0,0,-1.7281,-1.7281,-1.7308,-1.7314,-1.7305,-1.7308,-1.7311,-1.7361,-1.7371,-1.739,-1.7393,-1.7395,-1.7401,-1.7401,-1.7489,-1.7489,0,0,0,-1.7275,-1.728,-1.7289,-1.7311,-1.7319,-1.7309,-1.7313,-1.7368,-1.7371,-1.7394,-1.7396,-1.7401,-1.7402,-1.7488,-1.7489,-1.7511,0,0,0,-1.7273,-1.7276,-1.7288,-1.7288,-1.7318,-1.7344,-1.7319,-1.7368,-1.7374,-1.7395,-1.7401,-1.7402,-1.7488,-1.7489,-1.7509,-1.7521,0,0,0,-1.7268,-1.7275,-1.7282,-1.7288,-1.7308,-1.7343,-1.7349,-1.7369,-1.7375,-1.74,-1.7403,-1.7488,-1.7489,-1.7508,-1.7518,-1.7544,0,0,0,-1.7263,-1.7301,-1.7283,-1.7326,-1.7307,-1.7356,-1.7349,-1.7385,-1.7409,-1.7401,-1.7488,-1.7489,-1.7507,-1.7517,-1.7542,-1.7564,-1.7574,0,0,-1.7311,-1.7307,-1.7332,-1.7317,-1.7369,-1.7349,-1.7405,-1.7428,-1.7431,-1.747,-1.7472,-1.751,-1.7518,-1.7543,-1.7629,-1.7636,0,0,0,-1.7347,-1.7366,-1.7379,-1.7402,-1.742,-1.7437,-1.7451,-1.746,-1.7493,-1.7451,-1.7526,-1.7531,-1.7546,-1.7557,-1.7563,-1.7576,-1.7494,-1.7494,-1.7494,-1.7413,-1.7415,-1.7458,-1.7466,-1.7488,-1.7503,-1.7522,-1.7537,-1.7532,-1.7551,-1.7561,-1.7613,-1.7625,-1.763,-1.7643,-1.7575,-1.7575,-1.7575,-1.7575,-1.7482,-1.7508,-1.7502,-1.7541,-1.7544,-1.7578,-1.7595,-1.7591,-1.7624,-1.7604,-1.7618,-1.7595,-1.7638,-1.765,-1.7576,-1.7576,-1.7576,-1.7576,-1.7576,-1.7524,-1.7537,-1.7547,-1.7581,-1.7607,-1.7615,-1.7647,-1.7649,-1.7651,-1.7665,-1.7677,-1.7676,-1.7676,-1.7671,-1.7671,-1.7671,-1.7671,-1.7671,-1.7671,-1.7563,-1.7574,-1.7599,-1.7623,-1.7639,-1.766,-1.7677,-1.7693,-1.7712,-1.7711,-1.7711,-1.7705,-1.7642,-1.7626,-1.7674,-1.7674,-1.7673,-1.7673,-1.7673,-1.7629,-1.7615,-1.7654,-1.767,-1.7699,-1.7726,-1.7729,-1.7762,-1.7776,-1.7792,-1.7784,-1.7738,-1.7734,-1.7729,-1.7715,-1.7784,-1.7784,-1.7784,-1.7784,-1.7663,-1.7662,-1.7703,-1.7729,-1.7754,-1.7761,-1.7808,-1.7823,-1.7837,-1.7846,-1.7837,-1.782,-1.7815,-1.7814,-1.7807,-1.7794,-1.7882,-1.7882,-1.7882,-1.7704,-1.7706,-1.7743,-1.7756,-1.778,-1.7801,-1.7845,-1.7876,-1.7889,-1.7886,-1.7854,-1.785,-1.7822,-1.7812,-1.7806,-1.7795,-1.7772,0,0]},{"header":{"parameterUnit":"m.s-1","parameterCategory":1,"la1":30.2992,"la2":30.254,"lo1":-89.0895,"lo2":-89.0443,"dy":0.0025,"dx":0.0025,"nx":19,"ny":19,"refTime":"2026-03-13T21:00:00:Z","depth":0,"parameterNumber":3,"parameterNumberName":"V-component_of_WINDS"},"data":[0,0,0,1.6392,1.6392,1.641,1.6411,1.6424,1.6424,0,0,0,0,0,0,0,0,0,0,0,1.638,1.638,1.6392,1.6392,1.641,1.6411,1.6424,1.6424,0,0,0,0,0,0,0,0,0,0,0,1.6381,1.638,1.638,1.6392,1.641,1.6411,1.6424,1.6413,0,0,0,0,0,0,0,0,0,0,1.6397,1.6381,1.638,1.638,1.6392,1.641,1.6411,1.6413,1.6414,1.6411,0,1.6408,0,1.6416,1.6424,1.6424,0,0,0,1.6396,1.638,1.6391,1.638,1.6392,1.641,1.6403,1.6414,1.6415,1.6413,1.6408,1.6409,1.6416,1.6424,1.6424,1.6396,1.6396,0,0,1.6395,1.638,1.639,1.6391,1.6388,1.6403,1.6404,1.6415,1.6408,1.6408,1.6409,1.6416,1.6424,1.6424,1.6396,1.6396,0,0,0,1.6389,1.638,1.639,1.639,1.6395,1.6403,1.6404,1.6408,1.6413,1.641,1.6417,1.6424,1.6424,1.6397,1.6396,1.6366,0,0,0,1.6389,1.6376,1.6389,1.638,1.6394,1.6402,1.6397,1.6412,1.6414,1.6417,1.6424,1.6424,1.6397,1.6396,1.6367,1.6353,0,0,0,1.6381,1.6376,1.6376,1.638,1.6387,1.6402,1.6407,1.6413,1.6418,1.6424,1.6424,1.6397,1.6396,1.6369,1.6356,1.6341,0,0,0,1.6369,1.6349,1.6376,1.6356,1.6387,1.6383,1.6407,1.6405,1.6407,1.6424,1.6397,1.6396,1.6369,1.6357,1.6343,1.6326,1.6318,0,0,1.6335,1.6344,1.6334,1.6359,1.6347,1.6382,1.6365,1.638,1.6394,1.6394,1.6394,1.6367,1.6356,1.6342,1.6279,1.6272,0,0,0,1.6319,1.6311,1.6311,1.6313,1.6325,1.6333,1.6353,1.6359,1.636,1.6392,1.6359,1.6353,1.6345,1.6337,1.6332,1.6326,1.6392,1.6392,1.6393,1.625,1.6269,1.6254,1.6275,1.6277,1.6298,1.63,1.6312,1.633,1.6322,1.6322,1.6282,1.6272,1.6268,1.6262,1.6316,1.6315,1.6315,1.6315,1.6202,1.6194,1.6221,1.6215,1.6235,1.6231,1.625,1.6264,1.6262,1.6283,1.6277,1.6298,1.626,1.6256,1.6313,1.6314,1.6314,1.6314,1.6314,1.6158,1.6158,1.6166,1.6171,1.6172,1.6195,1.6193,1.6212,1.6229,1.6224,1.6225,1.6226,1.6228,1.6223,1.6223,1.6223,1.6223,1.6223,1.6223,1.6109,1.6119,1.6115,1.6126,1.613,1.6138,1.616,1.6164,1.6173,1.6187,1.6187,1.6206,1.6254,1.6265,1.6221,1.6221,1.6221,1.6221,1.6222,1.6051,1.6067,1.6061,1.6065,1.608,1.608,1.6105,1.6112,1.6119,1.6117,1.6138,1.617,1.618,1.6185,1.6194,1.6134,1.6134,1.6134,1.6134,1.6013,1.6021,1.6018,1.6024,1.6031,1.6053,1.6044,1.6061,1.6081,1.6086,1.6098,1.6112,1.6116,1.6124,1.613,1.6138,1.6066,1.6066,1.6066,1.5978,1.5988,1.5977,1.5997,1.6011,1.6023,1.6015,1.6019,1.6045,1.6063,1.609,1.6093,1.6116,1.6123,1.614,1.6148,1.6165,0,0]}]]